Find Starlink 3959

NORAD ID: 52564 Int'l Des: 2022-051 Owner: SPXS Country: US Constellation: starlink operational
LEOCIRCULAR

Current View

Loading 3D Globe...

About Starlink 3959

Description loading...

Upcoming Passes

Passes for default location (London). Set your location on the main map for personalized predictions.

Altitude History

Loading altitude history...

Two-Line Element Set

1 52564U 22051AH 26151.09667603 .00000225 00000-0 32254-4 0 9993
2 52564 53.1958 124.1831 0001450 84.4759 275.6398 15.08832521223813
Epoch: May 31, 2026 • Age: 9 hours

Current Status

Altitude 545.1 km
Velocity 7.59 km/s
Sub-Earth Point -18.25°S, 42.85°E
Launch Date May 13, 2022
Age 4 years
Type internet

Technical Details

Classification Payload
Mass 297.00 kg
Dry Mass 275.00 kg
Total Mass 297.00 kg
Length 0.20 m
Diameter 2.80 m
Span 9.00 m
Shape Box + pan
Manufacturer SPXS
Bus Type Starlink
Phase Status In Orbit
Owner/State SPXS/US

Most Searched